Wind_Speed
32 32 31 29 28 25 25 25 26 25 24 24 23 22 27 25 21 19 18 18 24 23 28 27 26 21 21 19 24 26 27 25 26 24 21 23 25 24 23 25 22 25 26
37 36 34 33 32 29 28 29 29 29 28 26 27 27 27 29 26 22 22 20 23 27 26 30 28 26 23 23 24 25 27 28 27 26 28 24 25 26 26 27 24 26 26
40 40 38 37 36 35 33 31 31 32 32 30 29 30 30 32 25 26 24 24 22 26 28 29 31 31 27 30 30 29 26 24 27 26 25 27 29 29 27 28 29 27 28
44 43 43 42 41 39 37 35 34 35 35 36 34 33 32 37 32 26 29 26 23 25 28 30 29 30 28 32 34 33 36 30 30 32 35 31 33 32 32 31 31 33 32
46 46 46 46 46 44 41 39 38 39 40 39 39 37 38 40 39 34 31 30 27 26 28 30 31 29 30 30 34 37 36 39 34 32 32 30 29 31 34 32 33 29 30
49 50 51 51 51 50 48 46 45 44 45 44 44 43 44 43 44 41 40 39 34 33 30 31 31 33 31 31 33 33 39 38 35 34 32 30 32 30 31 33 34 31 31
53 54 55 55 55 55 54 52 50 50 51 51 50 48 49 49 49 50 47 44 41 37 38 35 36 34 35 33 33 34 35 35 33 32 30 30 32 31 32 30 29 30 28
57 57 58 58 59 59 59 58 56 57 56 56 58 58 55 55 54 53 53 51 46 43 42 41 40 38 35 34 35 34 34 34 33 33 33 32 31 31 32 32 31 30 30
60 61 63 63 64 64 64 63 63 62 61 61 60 61 62 63 60 58 57 56 53 47 45 44 45 43 40 38 37 35 34 35 36 36 35 34 34 32 32 33 33 33 33
66 64 62 61 59 57 56 54 56 58 59 59 60 61 65 66 67 65 62 60 58 55 51 48 48 47 45 42 40 39 39 36 35 35 36 37 35 35 36 35 35 36 35
51 51 49 48 48 47 46 45 46 48 50 51 52 54 58 64 68 69 67 66 63 62 58 55 52 50 48 49 45 43 43 42 40 39 39 38 36 36 36 36 37 37 36
51 49 48 47 47 46 47 47 46 44 45 46 47 48 52 57 62 68 69 70 69 65 66 61 58 53 50 50 51 47 45 46 45 44 42 42 40 39 38 38 37 37 37
58 57 55 54 53 51 49 48 47 45 43 45 47 47 48 52 55 60 65 71 72 71 71 68 63 60 56 56 55 55 51 50 48 49 48 46 45 44 42 41 40 39 39
64 64 63 61 59 59 57 53 51 48 46 46 48 48 46 46 53 56 60 66 73 75 75 74 71 66 64 63 60 60 58 56 54 52 51 51 49 48 47 46 45 45 44
57 59 62 65 67 66 63 61 58 55 51 51 51 52 51 50 49 53 56 60 67 75 77 76 75 73 70 68 67 66 66 64 62 59 57 55 53 51 51 50 48 48 49
43 44 51 56 56 59 66 67 65 63 61 58 58 58 58 57 55 56 57 59 60 67 76 79 79 77 77 75 71 70 69 69 68 66 63 60 59 58 57 55 54 53 52
44 50 50 47 51 54 55 60 65 69 68 67 64 62 61 60 60 60 60 59 61 63 68 75 81 81 77 79 80 79 76 74 71 69 69 69 66 63 62 61 60 59 57
47 49 48 49 56 58 57 58 60 64 70 71 72 70 67 66 65 64 64 64 63 64 66 70 74 81 85 81 80 81 81 80 79 77 75 75 74 72 68 67 66 65 64
48 48 50 51 52 50 55 61 62 65 69 72 77 77 78 75 73 72 71 69 68 69 69 69 71 75 80 86 88 82 82 81 79 78 79 78 77 76 74 72 71 70 70
49 51 54 51 51 52 55 58 62 67 71 74 77 84 83 84 84 81 79 77 76 75 74 73 73 73 76 81 84 88 90 88 86 82 80 79 79 80 79 77 76 74 74
60 58 61 58 59 56 56 59 62 68 71 74 76 79 84 90 88 90 89 86 85 83 81 79 78 77 77 78 79 82 85 87 90 91 88 86 87 87 85 82 81 80 78
59 59 62 71 73 72 72 72 65 63 71 77 78 82 85 86 90 94 94 95 95 92 89 88 86 84 82 82 80 81 80 82 84 87 91 92 89 89 89 90 85 82 80
65 68 71 71 72 75 76 80 83 80 75 75 84 84 83 85 93 95 99 101 99 99 99 97 94 92 90 88 86 85 84 83 84 83 85 87 87 89 89 90 89 86 84
71 73 74 75 77 79 81 83 84 84 87 86 85 85 90 89 88 92 99 102 104 105 104 104 103 102 99 96 93 92 89 87 87 87 85 84 84 83 86 86 85 84 83
77 78 80 83 85 88 90 93 95 94 95 92 92 95 96 97 96 91 91 97 104 105 109 111 109 107 106 105 104 101 96 93 92 90 90 89 88 87 87 87 86 84 84
81 84 87 90 95 98 101 102 102 103 103 101 102 102 98 101 103 104 102 99 97 101 108 109 110 113 114 112 109 106 105 103 99 97 95 94 92 91 91 90 89 88 88
Wind_Direction
255 256 257 257 258 261 260 258 257 254 255 246 243 237 230 223 229 229 232 227 217 210 209 206 210 216 210 212 212 211 205 212 213 214 219 226 225 230 238 247 248 238 246
254 255 257 260 264 265 264 258 252 249 249 249 245 238 230 228 239 230 230 231 228 225 216 212 213 212 214 210 208 213 219 212 222 228 235 233 236 245 247 243 248 246 253
254 257 260 262 264 267 266 261 255 247 244 244 243 240 236 227 236 241 232 227 233 233 227 222 224 218 213 214 210 208 208 220 232 239 236 241 249 252 251 247 246 249 255
256 258 261 262 263 263 262 261 257 252 244 241 239 239 242 231 233 228 238 229 233 236 235 228 227 229 223 213 218 219 210 226 218 220 224 239 249 248 246 250 251 251 254
260 261 263 264 265 264 262 261 257 252 247 243 240 237 236 236 235 232 227 235 241 235 238 237 232 232 231 228 219 223 221 223 227 229 233 233 235 239 239 237 241 241 243
258 261 263 265 266 266 264 262 257 250 247 248 243 238 236 235 235 236 232 231 235 241 234 241 239 236 235 234 234 229 226 234 238 241 250 250 250 248 243 246 247 253 257
261 263 263 265 266 267 267 265 261 254 251 248 247 244 239 237 237 235 236 236 235 232 239 239 238 238 236 237 238 236 236 239 245 245 246 249 251 255 258 260 259 260 265
263 264 265 266 267 267 266 266 263 262 258 253 250 246 242 240 235 236 236 235 233 232 234 237 235 236 235 237 240 240 240 242 243 246 248 248 248 249 250 255 257 258 261
265 265 266 267 267 267 266 266 264 262 260 257 252 248 244 240 237 236 236 235 232 233 231 234 238 234 235 236 241 241 242 244 245 245 246 247 248 249 250 253 255 259 262
267 267 268 267 267 265 264 262 261 259 258 256 253 248 244 240 239 237 236 235 233 230 232 232 235 237 234 232 238 243 244 243 243 247 249 250 251 253 254 254 253 255 259
263 264 263 263 262 262 261 261 260 257 254 252 250 247 242 240 237 236 236 234 233 231 231 232 232 234 235 235 235 239 242 244 245 245 246 247 249 252 254 255 257 257 258
263 262 262 261 260 260 261 261 260 260 254 248 245 242 240 238 238 236 234 234 232 231 231 232 233 230 236 238 238 235 241 244 244 246 249 251 250 250 252 254 257 260 261
261 262 261 261 259 260 260 260 259 258 256 249 241 239 241 239 237 236 234 233 234 232 230 230 231 233 230 236 239 239 241 244 249 247 247 249 252 254 254 255 256 258 260
261 262 262 262 260 260 258 258 259 257 254 250 245 242 241 242 239 237 236 234 233 232 232 230 230 231 232 233 235 239 240 241 247 249 251 251 250 252 253 254 257 258 258
269 267 265 264 261 259 258 256 256 256 255 252 249 247 244 243 242 240 239 238 235 234 233 232 232 231 232 234 236 237 240 242 245 248 249 249 251 251 254 255 257 259 260
262 268 268 264 262 260 257 256 254 252 250 250 250 248 248 247 246 243 240 240 239 237 236 234 233 233 233 233 235 236 239 242 245 246 247 248 251 252 250 252 256 258 261
258 259 254 254 256 257 257 258 256 251 251 250 250 251 251 249 248 245 243 242 240 239 238 238 236 235 235 236 237 238 238 241 243 244 247 249 251 252 252 254 255 256 258
273 271 266 268 259 250 249 251 252 254 252 249 247 246 248 249 249 249 247 243 242 242 241 239 239 239 237 236 237 239 241 242 244 245 246 249 250 252 254 255 257 258 259
278 270 266 269 265 266 263 256 250 250 249 248 246 246 244 242 243 244 245 246 245 243 241 242 241 240 239 240 239 239 240 241 243 246 247 247 249 251 252 254 256 258 261
270 258 263 263 262 264 268 268 263 256 252 249 248 244 244 244 243 243 243 243 244 244 244 243 242 242 241 240 240 242 243 244 244 243 244 246 248 252 254 254 255 257 258
261 258 258 263 262 264 268 268 268 266 263 254 251 249 247 244 245 245 244 244 243 244 244 243 243 243 242 242 242 242 242 244 245 246 247 249 251 251 252 254 255 257 258
276 270 267 258 257 256 259 261 266 269 266 264 260 253 247 245 245 245 244 244 244 245 244 245 245 244 244 243 242 242 243 243 244 246 247 247 248 251 253 254 253 255 256
275 277 276 274 276 270 266 262 259 261 264 264 263 262 257 252 246 243 244 244 244 245 245 245 245 246 246 245 244 243 243 243 244 245 246 248 249 250 251 254 255 255 254
274 276 278 278 279 278 279 278 274 270 262 261 261 262 262 260 255 249 246 244 244 243 244 245 245 245 245 246 247 246 243 244 245 245 245 246 247 249 251 251 252 254 254
276 279 281 283 282 281 280 278 276 273 268 268 263 262 260 259 258 256 251 248 246 245 244 243 245 245 246 246 246 247 247 246 245 246 247 246 247 248 249 251 253 254 254
280 282 281 281 279 280 279 279 277 275 273 271 265 261 261 257 257 258 256 253 252 248 247 246 244 244 246 246 246 246 247 247 247 247 247 248 247 248 249 250 252 253 254
Height
10816 10817 10818 10820 10823 10824 10825 10825 10826 10827 10828 10830 10832 10833 10836 10837 10837 10839 10840 10841 10842 10844 10846 10848 10850 10852 10854 10855 10857 10858 10861 10863 10865 10867 10870 10871 10873 10875 10877 10879 10881 10882 10884
10809 10811 10813 10815 10817 10819 10820 10822 10823 10824 10824 10826 10827 10829 10831 10833 10834 10836 10837 10839 10840 10841 10843 10845 10847 10849 10851 10854 10855 10856 10858 10861 10862 10864 10866 10868 10870 10872 10874 10875 10876 10879 10880
10803 10805 10807 10809 10811 10813 10815 10816 10818 10819 10820 10821 10823 10825 10827 10828 10830 10832 10834 10836 10837 10838 10840 10842 10843 10845 10848 10850 10852 10854 10856 10858 10860 10861 10862 10864 10867 10868 10870 10872 10873 10875 10876
10798 10800 10801 10802 10803 10806 10808 10810 10811 10813 10815 10816 10818 10819 10822 10824 10826 10827 10830 10832 10834 10836 10837 10838 10840 10841 10843 10845 10848 10850 10852 10853 10856 10858 10860 10862 10863 10864 10866 10867 10869 10871 10872
10790 10792 10793 10794 10796 10797 10801 10802 10804 10806 10808 10810 10812 10814 10815 10817 10820 10823 10823 10827 10829 10831 10833 10834 10836 10837 10838 10840 10842 10845 10847 10849 10850 10852 10854 10856 10859 10860 10862 10863 10864 10866 10867
10783 10784 10783 10785 10786 10788 10791 10794 10796 10797 10800 10802 10805 10807 10808 10810 10813 10816 10818 10820 10823 10825 10827 10830 10832 10833 10834 10836 10837 10839 10842 10844 10845 10847 10849 10851 10853 10855 10856 10858 10859 10860 10861
10775 10775 10775 10776 10777 10778 10780 10783 10786 10788 10790 10792 10794 10797 10800 10802 10804 10807 10810 10814 10816 10818 10822 10824 10826 10828 10829 10830 10832 10835 10837 10838 10840 10841 10843 10846 10848 10849 10850 10852 10853 10854 10856
10766 10766 10766 10767 10768 10768 10769 10771 10773 10775 10777 10780 10783 10786 10789 10792 10795 10798 10802 10805 10809 10811 10813 10816 10818 10821 10823 10824 10825 10829 10832 10833 10834 10835 10837 10840 10842 10845 10846 10847 10848 10849 10850
10754 10756 10755 10756 10756 10756 10757 10758 10759 10761 10763 10766 10769 10772 10776 10779 10784 10788 10791 10795 10800 10803 10805 10808 10811 10814 10816 10818 10819 10823 10825 10827 10829 10830 10832 10834 10836 10838 10840 10842 10843 10844 10845
10742 10742 10742 10742 10743 10743 10744 10744 10746 10747 10748 10750 10753 10757 10761 10766 10771 10776 10780 10785 10789 10793 10796 10799 10803 10806 10809 10811 10812 10816 10818 10820 10822 10824 10826 10828 10831 10833 10834 10836 10837 10838 10839
10730 10731 10731 10731 10732 10733 10734 10734 10736 10736 10737 10739 10740 10743 10747 10751 10756 10761 10767 10773 10777 10782 10786 10789 10794 10797 10801 10805 10805 10808 10810 10812 10815 10817 10819 10821 10824 10826 10827 10829 10830 10832 10834
10719 10722 10722 10722 10722 10723 10725 10725 10726 10727 10728 10729 10730 10732 10735 10738 10742 10747 10753 10759 10765 10769 10775 10779 10784 10788 10792 10796 10798 10799 10803 10804 10807 10809 10811 10814 10817 10818 10821 10823 10824 10826 10827
10707 10708 10711 10713 10713 10714 10715 10716 10717 10719 10719 10721 10722 10724 10725 10728 10730 10735 10739 10745 10751 10756 10761 10767 10771 10775 10779 10784 10788 10790 10793 10796 10799 10802 10804 10807 10809 10811 10814 10815 10816 10819 10819
10700 10699 10700 10700 10702 10703 10705 10707 10707 10709 10711 10712 10715 10716 10718 10719 10721 10724 10727 10732 10736 10742 10747 10753 10758 10763 10767 10771 10776 10779 10782 10786 10789 10793 10795 10798 10801 10803 10804 10807 10808 10809 10811
10689 10689 10688 10689 10689 10689 10691 10695 10697 10699 10702 10704 10705 10706 10708 10710 10712 10714 10717 10720 10723 10728 10733 10739 10745 10751 10755 10759 10763 10767 10770 10775 10778 10782 10785 10788 10790 10794 10795 10796 10799 10801 10803
10674 10672 10671 10673 10674 10674 10676 10679 10683 10686 10688 10690 10692 10694 10696 10699 10702 10704 10705 10708 10711 10715 10719 10724 10729 10735 10741 10746 10750 10753 10757 10762 10766 10770 10773 10776 10779 10783 10786 10787 10789 10792 10794
10657 10657 10653 10652 10655 10657 10660 10661 10664 10668 10673 10678 10680 10682 10684 10686 10689 10691 10694 10697 10699 10702 10705 10710 10715 10720 10725 10730 10734 10740 10745 10748 10752 10756 10760 10763 10767 10770 10775 10777 10778 10781 10784
10646 10645 10643 10641 10641 10640 10642 10645 10647 10651 10653 10658 10662 10666 10670 10672 10674 10677 10680 10683 10686 10690 10692 10694 10699 10704 10710 10715 10719 10723 10728 10735 10738 10741 10746 10750 10753 10757 10762 10765 10767 10769 10772
10631 10630 10628 10626 10625 10625 10628 10630 10629 10631 10633 10636 10640 10644 10649 10652 10655 10659 10662 10667 10671 10673 10676 10681 10685 10688 10693 10698 10703 10708 10712 10718 10723 10727 10731 10735 10738 10743 10748 10751 10754 10758 10759
10619 10615 10613 10613 10610 10611 10611 10610 10612 10614 10616 10617 10619 10622 10627 10631 10635 10639 10643 10647 10651 10655 10660 10664 10668 10673 10676 10680 10685 10690 10696 10701 10707 10712 10715 10719 10723 10727 10731 10737 10739 10743 10747
10603 10599 10597 10595 10594 10594 10593 10593 10594 10593 10594 10597 10598 10604 10608 10613 10616 10621 10625 10628 10632 10636 10641 10645 10650 10654 10658 10663 10669 10673 10677 10683 10690 10694 10699 10703 10706 10710 10713 10720 10723 10727 10731
10584 10582 10578 10575 10574 10575 10574 10575 10575 10575 10575 10575 10577 10580 10583 10588 10594 10598 10602 10606 10611 10616 10621 10626 10630 10636 10641 10644 10651 10655 10661 10666 10672 10675 10679 10685 10688 10691 10695 10700 10708 10712 10716
10564 10561 10558 10556 10554 10553 10554 10554 10553 10552 10553 10554 10554 10557 10562 10568 10571 10572 10574 10581 10589 10594 10599 10605 10610 10616 10621 10626 10631 10636 10643 10649 10650 10657 10662 10667 10671 10676 10680 10682 10689 10694 10700
10542 10539 10537 10534 10531 10529 10528 10526 10525 10526 10528 10529 10532 10534 10535 10538 10543 10549 10553 10555 10559 10568 10574 10579 10585 10591 10598 10603 10611 10617 10625 10629 10633 10639 10645 10650 10654 10658 10661 10665 10669 10675 10680
10520 10516 10512 10508 10505 10503 10502 10500 10500 10499 10499 10501 10504 10505 10508 10510 10515 10520 10527 10533 10537 10541 10546 10553 10560 10566 10574 10579 10587 10593 10603 10611 10616 10621 10624 10631 10636 10640 10643 10648 10652 10658 10662
10498 10493 10489 10484 10479 10475 10471 10469 10470 10469 10468 10471 10472 10475 10474 10480 10486 10490 10495 10502 10508 10516 10521 10525 10533 10541 10547 10554 10561 10570 10578 10588 10595 10600 10606 10609 10618 10623 10626 10632 10637 10641 10643